www.pogodaiklimat.ru

Погода и климат >> Архив погоды >> Россия >> Архангельская область >> Мосеево


ПОГОДА в Мосеево

  • Прогноз погоды в Мосеево
  • Монитор погоды в Мосеево

АРХИВ ПОГОДЫ в Мосеево

Время (UTC), дата Ветер
(напр.,м/с)
 
Видим.   Явления Облачность Т
(С)
Тd
(С)
f
(%)
Тe
(С)
Тes
(С)
Комфортность P
(гПа)
Po
(гПа)
Тmin
(С)
Tmax
(С)
R
(мм)
R24
(мм)
S
(см)
06 16.08 З 3 20 км {ливн. осадки} 10/10 720 м
[Cb cap]
+12.9 +12.3 96 +11 +11 999.8 994.8 +12.6
09 16.08 З 3 2000 м ливневой дождь 10/10 800 м
[Cb cap]
+13.7 +13.1 96 +12 +12 1002.7 997.7
12 16.08 З 4 20 км {ливн. осадки} 9/5 600 м
[Cb calv Ac As]
+14.9 +12.1 83 +14 +15 1006.2 1001.2
15 16.08 З 4 10 км слаб. ливневой дождь 10/8 1350 м
[Cb calv Ac As]
+14.0 +11.8 87 +13 +13 1008.9 1003.8 +15.3 2
18 16.08 ЮЗ 2 20 км {ливн. осадки} 10/10 1000 м
[Cb cap]
+12.0 +10.8 92 +11 +11 1010.8 1005.7
21 16.08 З 2 20 км {ливн. осадки} 10/10 700 м
[Cb calv]
+12.0 +11.1 94 +11 +11 1012.0 1006.9
00 17.08 З 1 20 км {ливн. осадки} 10/10 800 м
[Sc]
+11.0 +10.3 95 +11 +11 1013.8 1008.7
03 17.08 З 2 20 км {ливн. осадки} 10/10 630 м
[Cb calv]
+11.0 +10.2 95 +10 +10 1014.7 1009.6 +10.7 0.0
06 17.08 З 1 20 км {ливн. осадки} 10/10 1080 м
[Cb calv]
+11.6 +10.2 91 +11 +11 1016.2 1011.1
09 17.08 З 1 20 км в посл. час ливневой дождь 10/10 800 м
[Cb calv]
+12.7 +10.2 85 +13 +13 1017.3 1012.2
12 17.08 штиль 0 20 км {ливн. осадки} 10/10 1140 м
[Cb calv]
+13.5 +10.5 82 +13 +13 1018.9 1013.8
15 17.08 В 1 20 км {ливн. осадки} 8/6 900 м
[Cb calv Ac cuf]
+13.5 +11.1 85 +14 +14 1019.6 1014.5 +13.6 0.1
18 17.08 ЮВ 1 20 км местами туман поземный {ливн. осадки} 3/0
[Ac trans Ci fib]
+7.9 +7.4 97 +7 +7 1020.4 1015.2
21 17.08 Ю 2 20 км в посл. час туман 3/0
[Ac trans]
+5.8 +5.6 99 +3 +3 1021.2 1015.9
00 18.08 ЮВ 1 20 км туман поземный 1/0
[Ac trans]
+3.6 +3.4 99 +2 +2 1022.2 1016.9
03 18.08 штиль 0 20 км {туман} 9/1 1000 м
[Sc Ac trans]
+8.2 +8.0 99 +7 +8 1023.0 1017.8 +1.9
06 18.08 Ю 3 20 км {туман} ясно +16.8 +11.6 71 +17 +21 1023.2 1018.1
09 18.08 Ю 4 20 км 6/3 600 м
[Cu hum Ac trans Cc]
+19.7 +11.6 60 +21 +24 комфорт 1022.8 1017.8
12 18.08 Ю 3 20 км 5/3 600 м
[Cu hum Ac trans Ci fib]
+21.3 +10.3 49 +23 +25 комфорт 1022.6 1017.6
15 18.08 ЮВ 3 20 км 3/1 600 м
[Cu med, cong Ac trans Ci fib]
+19.6 +10.1 54 +21 +21 комфорт 1022.5 1017.5 +19.6
18 18.08 В 2 20 км 1/1 1000 м
[Sc diur, vesp]
+12.3 +9.4 82 +11 +11 1023.0 1017.9
21 18.08 ЮВ 1 20 км местами туман поземный 3/1 1000 м
[Sc Ci fib]
+9.5 +8.5 93 +9 +9 1023.3 1018.1
00 19.08 ЮВ 2 20 км туман поземный ясно +7.9 +7.7 99 +6 +6 1023.6 1018.4
03 19.08 ЮВ 2 20 км 8/0
[Ac trans]
+10.9 +9.3 90 +10 +10 1023.4 1018.2 +6.7
06 19.08 ЮВ 3 20 км 9/0
[Ac trans]
+16.3 +11.6 74 +16 +18 1022.6 1017.5
09 19.08 ЮВ 7-10
{10}
20 км 4/3 600 м
[Cu hum Ac trans]
+22.2 +8.8 42 +24 +25 комфорт 1020.5 1015.5
12 19.08 ЮВ 6
{11}
20 км 3/1 600 м
[Cu hum Ci fib]
+23.3 +8.7 39 +25 +26 комфорт 1019.0 1014.1
15 19.08 ЮВ 5
{10}
20 км 3/0
[Ac trans]
+22.8 +10.4 45 +25 +25 комфорт 1017.7 1012.8 +23.6
18 19.08 ЮВ 4 20 км 8/0
[Ac trans]
+18.3 +12.0 67 +18 +18 1017.6 1012.6
21 19.08 ЮВ 3 20 км 4/0
[Ac trans]
+15.6 +12.5 82 +15 +15 1017.2 1012.1
00 20.08 ЮВ 3 20 км 10/9 1260 м
[Sc Ac As]
+15.5 +13.1 86 +15 +15 1016.9 1011.8
03 20.08 ЮВ 2 20 км 10/9 1350 м
[Sc Ac As]
+16.0 +13.9 87 +16 +16 1017.1 1012.1 +15.3
06 20.08 ЮВ 3 20 км 10/8 900 м
[Sc Ac As]
+17.5 +14.7 84 +18 +18 1016.8 1011.8
09 20.08 ЮВ 4 20 км 10/4 1000 м
[Sc Ac As]
+19.2 +15.2 78 +21 +22 комфорт 1016.5 1011.5
12 20.08 ЮВ 3 20 км 9/8 1320 м
[Cu Sc Ac trans Cc]
+21.0 +15.4 70 +25 +25 комфорт 1016.1 1011.1
15 20.08 ЮВ 3 20 км 9/4 1000 м
[Sc diur, vesp Ac trans]
+20.5 +16.0 75 +24 +24 комфорт 1016.1 1011.2 +21.9
18 20.08 ЮЗ 2 500 м ливневой дождь 10/10 660 м
[Cb cap]
+17.6 +16.9 96 +18 +18 1016.6 1011.6
21 20.08 Ю 2 4000 м слаб. ливневой дождь 10/9 900 м
[Cb cap Ac As]
+17.0 +16.7 98 +17 +17 1016.9 1011.9
00 21.08 З 1 4000 м туман поземный {ливн. осадки} 4/3 1000 м
[Sc diur, vesp Ac trans]
+15.2 +14.9 98 +16 +16 1017.7 1012.6
03 21.08 Ю 1 200 м туман ?/? +13.6 +13.4 99 +14 +14 1018.1 1013.0 +13.6 4
06 21.08 ЮЗ 2 20 км {туман} 9/8 870 м
[Cu med, cong Ac cuf]
+16.2 +15.0 93 +16 +17 1018.6 1013.5
09 21.08 З 2 20 км 9/3 600 м
[Cu med, cong Ac trans Cs]
+19.6 +13.5 68 +22 +25 комфорт 1018.2 1013.3
12 21.08 З 2 20 км 9/4 600 м
[Cb calv Cc]
+20.7 +12.6 60 +24 +26 комфорт 1017.9 1012.9
15 21.08 штиль 0
{13}
4000 м слаб. ливневой дождь, в посл. час гроза 8/8 720 м
[Cb calv Ac cuf]
+14.2 +13.4 95 +14 +14 1018.7 1013.7 +21.9 3
18 21.08 штиль 0 20 км туман поземный {гроза, ливн. осадки} 3/1 1000 м
[Sc Ac trans]
+11.1 +10.8 98 +10 +10 1018.9 1013.8
21 21.08 ЮВ 1 20 км местами туман поземный 1/1 1000 м
[Sc]
+10.1 +10.0 99 +9 +9 1018.6 1013.4
00 22.08 Ю 1 20 км местами туман поземный ясно +8.5 +8.4 99 +8 +8 1018.9 1013.7
03 22.08 Ю 1 20 км местами туман поземный 3/0
[Ac trans]
+8.5 +8.4 99 +8 +8 1018.6 1013.4 +5.2 0.4
06 22.08 Ю 3 20 км 3/0
[Ac trans Ci fib]
+18.3 +12.9 71 +19 +22 1017.6 1012.6
09 22.08 Ю 3 20 км 9/4 600 м
[Cu med, cong Ac trans Cc]
+19.9 +11.7 59 +22 +24 комфорт 1016.3 1011.3
12 22.08 СВ 1 20 км гроза без осадков 9/5 600 м
[Cb calv Ac trans Cc]
+18.4 +11.6 65 +20 +22 1014.3 1009.3
15 22.08 СЗ 2 4000 м гроза, ливневой дождь 10/10 600 м
[Cb cap]
+13.1 +11.5 90 +12 +12 1013.4 1008.3 +21.7 21
18 22.08 СВ 1 4000 м слаб. ливневой дождь {гроза} 10/10 400 м
[Cb cap]
+12.3 +11.6 95 +12 +12 1012.7 1007.6
21 22.08 З 1 4000 м слаб. ливневой дождь 10/10 330 м
[Cb cap]
+11.8 +11.6 99 +12 +12 1010.9 1005.8
00 23.08 СЗ 2 20 км {ливн. осадки} 10/9 400 м
[Cb calv Ac As]
+11.3 +11.0 98 +10 +10 1010.6 1005.5
03 23.08 Ю 1 20 км в посл. час ливневой дождь 9/6 800 м
[Cb calv Ac trans]
+11.4 +10.9 97 +11 +11 1010.7 1005.6 +11.2 12

 

Местоположение метеостанции Мосеево (Архангельская область, Россия): широта 65.77 долгота 46.20 высота над уровнем моря 42 м.

В архиве по умолчанию представлена погода в Мосеево за последнюю неделю. Архивные данные за месяц целиком и за предыдущие месяцы, начиная с января 2011 года, Вы можете получить, выбрав интересующий диапазон дат из раскрывающегося списка и нажав кнопку "Ввод!".


*Определитесь, кто Вы:
робот инопланетянин человек

Внимание! Время в таблицах - всемирное. Для получения местного времени необходимо прибавить поправку, которая равна 3 ч.

Смотрите также архив погоды в соседних городах и на ближайших метеорологических станциях:

Погода в Мезене (Архангельская область, Россия) (91 км)
Погода в Лешуконском (Архангельская область, Россия) (99 км)
Погода в Неси (Ненецкий АО, Россия) (115 км)
Погода в Нижней Пеше (Ненецкий АО, Россия) (130 км)
Погода в Койнасе (Архангельская область, Россия) (132 км)
Погода в Абрамовском маяке (Архангельская область, Россия) (149 км)
Погода в Пинеге (Архангельская область, Россия) (174 км)
Погода на Моржовец Острове (Архангельская область, Россия) (197 км)
Погода в Кепино (Архангельская область, Россия) (206 км)
Погода в Карпогорах (Архангельская область, Россия) (216 км)

Пояснения к столбцам:

Ветер - указаны скорость ветра в м/с - средняя за 10 мин, порывы в срок и между сроками (в фигурных скобках) и направление, откуда дует ветер: С - северный, СВ - северо-восточный, В - восточный, ЮВ - юго-восточный, Ю - южный, ЮЗ - юго-западный, З - западный, СЗ - северо-западный.
Видимость - горизонтальная дальность видимости в метрах или километрах. При видимости от 1 до 10 км при отсутствии осадков обычно наблюдается дымка, при ухудшении видимости до 1 км и менее - туман. В сухую погоду видимость может ухудшаться дымом, пылью или мглою.
Явления - указаны атмосферные явления, наблюдавшиеся в срок или в последний час перед сроком; фигурными скобками обозначены явления, наблюдавшиеся между сроками (за 1-3 часа до срока); квадратными скобками обозначены град или гололедные отложения с указанием их диаметра в мм.
Облачность - указаны через наклонную черту общая и нижняя облачность в баллах и высота нижней границы облаков в метрах; квадратными скобками обозначены формы облаков: Ci - перистые, Cs - перисто-слоистые, Cc - перисто-кучевые, Ac - высококучевые, As - высокослоистые, Sc - слоисто-кучевые, Ns - слоисто-дождевые, Cu - кучевые, Cb - кучево-дождевые. Подробнее классификацию облаков см. в Атласе облаков (PDF).
T - Температура воздуха - температура, измеренная на высоте 2 м над землей.
Td - Температура точки росы - температура, при понижении до которой содержащийся в воздухе водяной пар достигнет насыщения.
f - Относительная влажность воздуха - влажноcть воздуха, измеренная на высоте 2 м над землей.
Te - Эффективная температура - температура, которую ощущает одетый по сезону человек в тени. Характеристика душности погоды. При расчете учитывается влияние влажности воздуха и скорости ветра на теплоощущения человека.
Tes - Эффективная температура на солнце - температура, которую ощущает человек, с поправкой на солнечный нагрев. Характеристика знойности погоды. Зависит от высоты солнца над горизонтом, облачности и скорости ветра. Ночью, в пасмурную погоду, а также при ветре 12 м/с и более поправка равна нулю.
P - Атмосферное давление - приведенное к уровню моря атмосферное давление.
Po - Атмосферное давление - измеренное на уровне метеостанции атмосферное давление.
Tmin - Минимальная температура - минимум температуры воздуха на высоте 2 м над землей.
Tmax - Максимальная температура - максимум температуры воздуха на высоте 2 м над землей.
R - Количество осадков - Количество выпавших осадков за период времени, мм. При наведении курсора мыши на число - период времени, за который выпало указанное количество осадков.
R24 - Количество осадков - Количество выпавших осадков за 24 часа, мм.
S - Снежный покров - Высота снежного покрова, см. При наведении курсора мыши на число - состояние снежного покрова и степень покрытия местности в баллах.